TimeMDT,TemperatureF,Dew PointF,Humidity,Sea Level PressureIn,VisibilityMPH,Wind Direction,Wind SpeedMPH,Gust SpeedMPH,PrecipitationIn,Events,Conditions,WindDirDegrees,DateUTC
12:00 AM,35.6,0.3,23,30.05,10.0,Calm,Calm,-,N/A,,Clear,0,2012-10-09 06:00:00
12:42 AM,35.1,1.4,24,30.05,10.0,Calm,Calm,-,N/A,,Clear,0,2012-10-09 06:42:00
1:02 AM,34.7,1.6,25,30.05,10.0,Calm,Calm,-,N/A,,Clear,0,2012-10-09 07:02:00
1:43 AM,32.9,3.2,29,30.05,10.0,Calm,Calm,-,N/A,,Clear,0,2012-10-09 07:43:00
2:03 AM,33.3,3.0,28,30.06,10.0,Calm,Calm,-,N/A,,Clear,0,2012-10-09 08:03:00
2:23 AM,32.2,3.6,30,30.06,10.0,Calm,Calm,-,N/A,,Clear,0,2012-10-09 08:23:00
2:43 AM,31.6,3.9,31,30.06,10.0,Calm,Calm,-,N/A,,Clear,0,2012-10-09 08:43:00
3:02 AM,31.8,3.7,31,30.06,10.0,Calm,Calm,-,N/A,,Clear,0,2012-10-09 09:02:00
3:23 AM,29.3,5.4,36,30.05,10.0,Calm,Calm,-,N/A,,Clear,0,2012-10-09 09:23:00
3:43 AM,27.7,5.7,39,30.05,10.0,Calm,Calm,-,N/A,,Clear,0,2012-10-09 09:43:00
4:02 AM,27.7,6.4,41,30.06,10.0,Calm,Calm,-,N/A,,Clear,0,2012-10-09 10:02:00
4:22 AM,27.5,7.7,43,30.06,10.0,Calm,Calm,-,N/A,,Clear,0,2012-10-09 10:22:00
4:53 AM,26.8,7.7,45,30.06,10.0,Calm,Calm,-,N/A,,Clear,0,2012-10-09 10:53:00
5:13 AM,28.6,7.9,42,30.06,10.0,Calm,Calm,-,N/A,,Clear,0,2012-10-09 11:13:00
5:33 AM,27.3,8.2,45,30.07,10.0,Calm,Calm,-,N/A,,Clear,0,2012-10-09 11:33:00
5:45 AM,27.3,8.6,45,30.07,10.0,Calm,Calm,-,N/A,,Clear,0,2012-10-09 11:45:00
6:03 AM,28.4,8.2,43,30.07,10.0,Calm,Calm,-,N/A,,Clear,0,2012-10-09 12:03:00
6:22 AM,27.1,8.2,45,30.08,10.0,Calm,Calm,-,N/A,,Clear,0,2012-10-09 12:22:00
6:53 AM,25.9,8.4,48,30.08,10.0,Calm,Calm,-,N/A,,Clear,0,2012-10-09 12:53:00
7:13 AM,24.4,9.0,52,30.09,10.0,Calm,Calm,-,N/A,,Clear,0,2012-10-09 13:13:00
7:33 AM,25.3,9.3,51,30.09,10.0,Calm,Calm,-,N/A,,Clear,0,2012-10-09 13:33:00
7:53 AM,27.3,9.7,48,30.09,10.0,Calm,Calm,-,N/A,,Clear,0,2012-10-09 13:53:00
8:13 AM,28.9,10.2,46,30.09,10.0,Calm,Calm,-,N/A,,Clear,0,2012-10-09 14:13:00
8:33 AM,29.3,9.5,44,30.10,10.0,Calm,Calm,-,N/A,,Clear,0,2012-10-09 14:33:00
8:53 AM,32.0,9.0,38,30.10,10.0,Calm,Calm,-,N/A,,Clear,0,2012-10-09 14:53:00
9:12 AM,35.1,9.9,35,30.10,10.0,Calm,Calm,-,N/A,,Clear,0,2012-10-09 15:12:00
9:32 AM,39.2,10.2,30,30.10,10.0,Calm,Calm,-,N/A,,Clear,0,2012-10-09 15:32:00
9:52 AM,41.2,10.2,28,30.10,10.0,Calm,Calm,-,N/A,,Clear,0,2012-10-09 15:52:00
10:13 AM,44.2,9.5,24,30.10,10.0,Calm,Calm,-,N/A,,Clear,0,2012-10-09 16:13:00
10:23 AM,46.0,9.1,22,30.10,10.0,Calm,Calm,-,N/A,,Clear,0,2012-10-09 16:23:00
10:42 AM,50.9,9.1,19,30.10,10.0,East,3.5,-,N/A,,Clear,100,2012-10-09 16:42:00
11:03 AM,53.6,7.3,16,30.10,10.0,Calm,Calm,-,N/A,,Clear,0,2012-10-09 17:03:00
11:22 AM,55.0,7.0,15,30.10,10.0,SW,3.5,-,N/A,,Clear,220,2012-10-09 17:22:00
11:42 AM,57.2,6.4,13,30.10,10.0,South,6.9,-,N/A,,Clear,180,2012-10-09 17:42:00
12:02 PM,58.6,6.3,12,30.09,10.0,South,4.6,-,N/A,,Clear,180,2012-10-09 18:02:00
12:33 PM,61.7,3.9,10,30.08,10.0,West,18.4,28.8,N/A,,Clear,260,2012-10-09 18:33:00
12:40 PM,61.3,3.6,10,30.08,10.0,WSW,15.0,24.2,N/A,,Clear,250,2012-10-09 18:40:00
12:58 PM,61.9,3.2,10,30.07,10.0,West,19.6,33.4,N/A,,Clear,270,2012-10-09 18:58:00
1:18 PM,62.8,2.7,9,30.07,10.0,WSW,18.4,39.1,N/A,,Clear,250,2012-10-09 19:18:00
1:38 PM,63.5,2.1,9,30.07,10.0,West,12.7,28.8,N/A,,Clear,270,2012-10-09 19:38:00
1:58 PM,64.8,1.6,8,30.06,10.0,West,23.0,28.8,N/A,,Clear,260,2012-10-09 19:58:00
2:18 PM,63.1,-0.6,8,30.06,10.0,West,21.9,40.3,N/A,,Clear,270,2012-10-09 20:18:00
2:40 PM,64.0,-0.8,7,30.06,10.0,West,20.7,31.1,N/A,,Clear,260,2012-10-09 20:40:00
3:00 PM,64.2,-2.9,7,30.06,10.0,WSW,23.0,29.9,N/A,,Clear,250,2012-10-09 21:00:00
3:21 PM,64.4,-0.6,7,30.06,10.0,West,13.8,25.3,N/A,,Clear,260,2012-10-09 21:21:00
3:53 PM,64.4,-0.6,7,30.06,10.0,West,18.4,26.5,N/A,,Clear,260,2012-10-09 21:53:00
4:13 PM,64.8,-1.1,7,30.06,10.0,West,17.3,23.0,N/A,,Clear,270,2012-10-09 22:13:00
4:28 PM,65.5,-1.7,7,30.05,10.0,WSW,18.4,27.6,N/A,,Clear,250,2012-10-09 22:28:00
4:41 PM,65.3,-2.7,7,30.05,10.0,West,15.0,20.7,N/A,,Clear,270,2012-10-09 22:41:00
5:01 PM,65.3,-4.5,6,30.05,10.0,West,23.0,28.8,N/A,,Clear,270,2012-10-09 23:01:00
5:21 PM,64.6,-5.6,6,30.06,10.0,West,15.0,21.9,N/A,,Clear,260,2012-10-09 23:21:00
5:41 PM,63.5,-4.0,7,30.06,10.0,West,10.4,17.3,N/A,,Clear,270,2012-10-09 23:41:00
6:02 PM,62.6,-5.1,6,30.06,10.0,West,12.7,18.4,N/A,,Clear,270,2012-10-10 00:02:00
6:20 PM,60.8,-5.1,7,30.07,10.0,West,9.2,-,N/A,,Clear,260,2012-10-10 00:20:00
6:42 PM,58.6,-4.0,8,30.07,10.0,West,10.4,-,N/A,,Clear,270,2012-10-10 00:42:00
7:00 PM,56.7,-4.0,8,30.08,10.0,Calm,Calm,-,N/A,,Clear,0,2012-10-10 01:00:00
7:32 PM,54.1,-1.7,10,30.09,10.0,Calm,Calm,-,N/A,,Clear,0,2012-10-10 01:32:00
7:45 PM,53.2,-2.4,10,30.09,10.0,Calm,Calm,-,N/A,,Clear,0,2012-10-10 01:45:00
8:03 PM,54.1,-1.7,10,30.10,10.0,Calm,Calm,-,N/A,,Clear,0,2012-10-10 02:03:00
8:23 PM,53.2,-2.4,10,30.10,10.0,Calm,Calm,-,N/A,,Clear,0,2012-10-10 02:23:00
8:43 PM,50.4,-2.4,11,30.11,10.0,Calm,Calm,-,N/A,,Clear,0,2012-10-10 02:43:00
9:03 PM,48.2,-0.4,13,30.12,10.0,Calm,Calm,-,N/A,,Clear,0,2012-10-10 03:03:00
9:23 PM,49.8,-3.1,11,30.12,10.0,Calm,Calm,-,N/A,,Clear,0,2012-10-10 03:23:00
9:42 PM,47.3,-0.9,14,30.13,10.0,Calm,Calm,-,N/A,,Clear,0,2012-10-10 03:42:00
10:13 PM,45.1,2.3,17,30.14,10.0,Calm,Calm,-,N/A,,Clear,0,2012-10-10 04:13:00
10:22 PM,45.5,3.7,18,30.14,10.0,Calm,Calm,-,N/A,,Clear,0,2012-10-10 04:22:00
10:40 PM,41.4,5.5,23,30.14,10.0,Calm,Calm,-,N/A,,Clear,0,2012-10-10 04:40:00
11:00 PM,42.4,2.3,19,30.14,10.0,Calm,Calm,-,N/A,,Clear,0,2012-10-10 05:00:00
11:21 PM,39.4,5.9,25,30.15,10.0,SE,4.6,-,N/A,,Clear,140,2012-10-10 05:21:00
11:41 PM,38.7,5.0,25,30.15,10.0,Calm,Calm,-,N/A,,Clear,0,2012-10-10 05:41:00